Location: Unspecified
(49.2170°N, 0.0000°E)
Time: 14:52:28
(UTC+00:00)

Tiros 1 despin weight - Pass Details

Date: 23 January 2021
Orbit: 593 x 642 km, 48.2° (Epoch: 07 March)

Event Time Altitude Azimuth Distance (km) Brightness Sun altitude
Rises 18:18:50 0° 276° (W) 2,861 ? -15.6°
Reaches altitude 10° 18:21:09 10° 274° (W) 1,949 ? -15.9°
Maximum altitude 18:25:35 70° 192° (SSW) 640 ? -16.6°
Enters shadow 18:27:52 28° 115° (ESE) 1,138 ? -17.0°
Drops below altitude 10° 18:29:59 10° 109° (ESE) 1,926 - -17.3°
Sets 18:32:15 0° 107° (ESE) 2,824 - -17.7°
